N864MC KLAX-KLAS

Flight info

Callsign N864MC
Flight time N/A
Altitude 29000
Route OSHNN1 MISEN RNDRZ4
Aircraft C700/M-SBDGHM1RWXY/LB2

Departure

Time 2026-04-20 05:50
Airport Los Angeles International Airport (KLAX)

Arrival

Time N/A
Airport Harry Reid International Airport (KLAS)
Time Latitude Longitude Altitude Speed Heading
2026-04-20 05:41 33.93277 -118.39887 120 ft 0 kts 173°
2026-04-20 05:45 33.93277 -118.39886 120 ft 0 kts 168°
2026-04-20 05:45 33.93279 -118.39874 116 ft 6 kts 52°
2026-04-20 05:46 33.93304 -118.39905 119 ft 1 kts 289°
2026-04-20 05:46 33.93317 -118.39909 119 ft 4 kts
2026-04-20 05:46 33.93344 -118.39893 120 ft 1 kts 38°
2026-04-20 05:46 33.93365 -118.39852 119 ft 9 kts 64°
2026-04-20 05:47 33.93378 -118.39824 118 ft 6 kts 44°
2026-04-20 05:47 33.93446 -118.39808 120 ft 14 kts 34°
2026-04-20 05:47 33.93471 -118.39655 120 ft 24 kts 83°
2026-04-20 05:47 33.93494 -118.39419 118 ft 31 kts 84°
2026-04-20 05:48 33.93523 -118.39154 119 ft 33 kts 82°
2026-04-20 05:48 33.93551 -118.38873 119 ft 35 kts 83°
2026-04-20 05:48 33.93581 -118.38585 118 ft 35 kts 83°
2026-04-20 05:48 33.93604 -118.38355 120 ft 22 kts 84°
2026-04-20 05:49 33.93686 -118.38283 120 ft 18 kts 347°
2026-04-20 05:49 33.93717 -118.38469 120 ft 38 kts 263°
2026-04-20 05:49 33.93654 -118.39080 120 ft 116 kts 262°
2026-04-20 05:49 33.93528 -118.40274 235 ft 169 kts 265°
2026-04-20 05:50 33.93341 -118.41927 496 ft 220 kts 260°
2026-04-20 05:50 33.93130 -118.43663 711 ft 196 kts 260°
2026-04-20 05:50 33.92879 -118.45231 576 ft 191 kts 253°
2026-04-20 05:50 33.92328 -118.46567 830 ft 167 kts 234°
2026-04-20 05:51 33.91665 -118.47649 970 ft 158 kts 234°
2026-04-20 05:51 33.91021 -118.48732 973 ft 158 kts 234°
2026-04-20 05:51 33.90333 -118.49770 966 ft 158 kts 231°
2026-04-20 05:51 33.89710 -118.50714 1556 ft 146 kts 232°
2026-04-20 05:52 33.89029 -118.51748 2358 ft 166 kts 230°
2026-04-20 05:52 33.88280 -118.52868 3346 ft 176 kts 229°
2026-04-20 05:52 33.87499 -118.54040 4411 ft 182 kts 229°
2026-04-20 05:52 33.86608 -118.55148 5523 ft 185 kts 211°
2026-04-20 05:53 33.85357 -118.55832 6555 ft 212 kts 192°
2026-04-20 05:53 33.83826 -118.55902 7647 ft 236 kts 170°
2026-04-20 05:53 33.82121 -118.55442 8750 ft 263 kts 167°
2026-04-20 05:53 33.80302 -118.54939 10241 ft 270 kts 168°
2026-04-20 05:54 33.78401 -118.54427 11345 ft 297 kts 168°
2026-04-20 05:54 33.76344 -118.53872 12804 ft 305 kts 168°
2026-04-20 05:54 33.74262 -118.53226 14307 ft 314 kts 161°
2026-04-20 05:54 33.72258 -118.52062 15599 ft 326 kts 150°
2026-04-20 05:55 33.70428 -118.50365 16892 ft 339 kts 138°
2026-04-20 05:55 33.67484 -118.44821 19534 ft 364 kts 112°
2026-04-20 05:55 33.64538 -118.32678 23672 ft 397 kts 95°
2026-04-20 05:55 33.65841 -118.19287 27119 ft 419 kts 60°
2026-04-20 05:56 33.74227 -118.09277 28992 ft 453 kts 32°
2026-04-20 05:56 33.84649 -117.99871 29017 ft 480 kts 33°
2026-04-20 05:56 33.98906 -117.82780 29004 ft 494 kts 45°
2026-04-20 05:56 34.17999 -117.58748 29028 ft 497 kts 44°
2026-04-20 05:57 34.51448 -117.16555 29015 ft 497 kts 43°
2026-04-20 05:57 34.69570 -116.93131 28954 ft 503 kts 44°
2026-04-20 05:58 34.74445 -116.86947 28979 ft 503 kts 45°
2026-04-20 05:58 34.79162 -116.80782 28988 ft 499 kts 44°
2026-04-20 05:59 34.81477 -116.77809 28991 ft 498 kts 44°
2026-04-20 05:59 34.82673 -116.76281 28990 ft 499 kts 44°
2026-04-20 06:00 34.83871 -116.74752 28988 ft 499 kts 44°
2026-04-20 06:00 34.86982 -116.70727 28978 ft 497 kts 45°
2026-04-20 06:01 34.90558 -116.66001 28973 ft 497 kts 45°
2026-04-20 06:01 34.91744 -116.64470 28967 ft 496 kts 44°
2026-04-20 06:02 34.92941 -116.62946 28957 ft 496 kts 44°
2026-04-20 06:02 34.94463 -116.61038 28953 ft 496 kts 43°
2026-04-20 06:03 34.99149 -116.54835 28944 ft 497 kts 46°
2026-04-20 06:03 35.03883 -116.48699 28930 ft 496 kts 44°
2026-04-20 06:04 35.09341 -116.44198 28872 ft 477 kts 359°
2026-04-20 06:04 35.16044 -116.46413 28944 ft 474 kts 326°
2026-04-20 06:04 35.21013 -116.58173 28968 ft 431 kts 265°
2026-04-20 06:05 35.20268 -116.61577 28968 ft 402 kts 245°
2026-04-20 06:05 35.18798 -116.64355 28962 ft 376 kts 234°
2026-04-20 06:05 35.16641 -116.67337 28940 ft 346 kts 229°
2026-04-20 06:05 35.09047 -116.71145 28929 ft 285 kts 179°
2026-04-20 06:06 35.02017 -116.70166 28941 ft 223 kts 177°
2026-04-20 06:06 34.98295 -116.69537 28794 ft 189 kts 177°
2026-04-20 06:06 34.92144 -116.68439 25482 ft 283 kts 175°
2026-04-20 06:06 34.87514 -116.73913 25726 ft 159 kts 286°
2026-04-20 06:07 34.90322 -116.78464 24521 ft 178 kts 316°
2026-04-20 06:07 34.92784 -116.81147 23674 ft 193 kts 307°
2026-04-20 06:08 34.94298 -116.83702 21016 ft 278 kts 300°
2026-04-20 06:08 34.98439 -116.92579 15930 ft 342 kts 294°
2026-04-20 06:09 34.93977 -116.91922 7775 ft 372 kts 112°
2026-04-20 06:09 34.90490 -116.86107 5629 ft 317 kts 139°
2026-04-20 06:09 34.88846 -116.84257 3192 ft 348 kts 138°
2026-04-20 06:09 34.87154 -116.82343 2692 ft 306 kts 136°
2026-04-20 06:10 34.85876 -116.81053 2855 ft 183 kts 148°
2026-04-20 06:10 34.85202 -116.79885 2296 ft 155 kts 97°
2026-04-20 06:10 34.85525 -116.78855 1919 ft 103 kts 44°
2026-04-20 06:10 34.85702 -116.78683 1919 ft 0 kts 34°